Location: Pf�ffikon
(47.2015°N, 8.7809°E)
Time: 08:06:48
(UTC+00:00)

USA 215 - Pass Details

Date: 07 June 2020
Orbit: 1098 x 1110 km, 123.0° (Epoch: 10 July)

Event Time Altitude Azimuth Distance (km) Brightness Sun altitude
Exits shadow 00:28:06 13° 147° (SSE) 2,714 4.9 -18.5°
Maximum altitude 00:33:51 56° 224° (SW) 1,292 3.3 -18.3°
Drops below altitude 10° 00:40:16 10° 302° (WNW) 2,967 5.7 -17.9°
Sets 00:42:49 0° 306° (NW) 3,926 6.4 -17.8°
